Dewpoint
49 49 49 48 48 48 48 49 49 50 50 51 52 53 54 55 55 52 49 47 48 45 43 41 41 39 38 38 37 33 33 31 29 31 30 28 24 22 20 19 18 17 16 16 16 15 12 14 13 13 18 22 22 15
48 49 48 47 48 48 46 46 49 48 48 51 50 50 51 52 54 53 48 46 47 45 38 39 38 37 37 37 38 33 35 30 31 30 28 24 22 21 20 20 18 18 18 18 16 16 15 16 18 18 19 17 15 14
47 48 49 47 47 46 45 46 47 49 48 49 49 50 51 51 52 49 44 44 44 39 37 37 35 35 36 36 38 36 36 34 31 34 31 30 28 24 22 21 21 20 19 18 18 19 17 16 16 15 15 15 15 15
45 47 49 47 46 46 45 45 46 48 49 49 49 49 51 49 48 46 45 45 44 41 39 31 34 30 32 35 38 38 36 36 35 34 32 30 29 29 25 23 21 21 18 17 17 16 16 16 16 15 15 15 15 15
45 46 48 47 47 46 45 43 47 47 47 48 49 49 50 49 47 45 45 44 44 42 35 31 28 26 31 35 36 37 36 34 33 31 30 29 30 26 25 23 22 18 19 18 19 16 16 15 16 15 14 15 15 15
46 46 47 47 45 45 43 46 47 45 45 45 45 46 48 48 47 45 41 43 42 41 36 31 25 26 34 35 35 35 35 34 33 31 29 29 30 27 23 20 20 18 17 17 16 17 17 16 15 15 15 15 14 15
45 45 45 46 44 43 46 46 45 45 44 44 45 46 49 45 42 40 38 39 42 42 35 28 22 23 25 31 31 32 32 31 31 30 27 27 25 26 23 20 18 17 16 16 16 16 15 15 15 15 14 13 12 12
45 44 45 45 41 45 45 44 44 44 44 45 46 47 44 43 41 37 37 39 40 37 35 28 22 22 25 26 26 29 28 29 28 26 25 22 23 25 20 20 17 17 16 16 16 16 16 16 15 13 12 11 11 11
45 44 45 45 42 43 45 45 44 43 45 46 44 42 39 35 35 34 38 38 37 37 33 28 24 21 24 26 26 24 24 20 23 22 22 21 19 18 19 18 17 17 16 16 16 15 15 14 13 11 11 11 11 11
45 43 44 45 42 40 41 42 43 44 45 42 39 35 31 33 37 37 36 35 35 32 31 27 22 20 23 24 23 20 21 19 15 18 21 18 17 18 17 18 17 16 16 15 15 15 15 13 11 11 10 11 12 12
45 44 45 45 43 42 41 39 43 44 40 36 32 29 33 37 34 33 31 29 27 27 27 23 21 20 23 21 21 25 20 16 12 13 17 14 15 17 16 16 16 15 15 14 14 13 13 12 11 11 11 11 11 11
45 44 43 45 44 42 41 40 43 40 38 36 33 35 34 30 28 28 24 22 22 24 23 22 21 23 25 27 22 21 17 17 12 19 17 13 15 17 17 16 15 14 13 13 13 13 12 12 12 11 11 11 11 11
44 43 43 46 45 44 42 42 42 38 36 34 30 27 27 24 23 23 20 19 19 20 22 22 22 23 23 21 19 18 16 13 18 16 12 13 16 17 16 15 14 14 14 13 12 12 11 11 11 11 11 11 10 9
43 43 42 44 45 44 43 43 40 38 37 32 27 23 23 21 21 22 20 19 20 20 22 21 19 19 20 17 17 14 15 14 12 9 9 11 16 16 16 15 15 14 13 12 11 10 10 10 10 10 10 9 9 9
42 41 41 43 44 45 43 42 40 36 35 30 27 22 23 20 17 17 17 20 22 22 18 16 16 16 14 13 14 12 12 10 11 9 8 11 14 14 13 13 12 12 11 10 9 9 9 8 9 9 9 8 9 9
40 39 41 42 44 44 43 38 34 32 27 25 22 20 18 19 17 18 19 20 21 18 15 14 11 9 10 11 11 9 8 5 5 9 11 11 12 11 10 10 10 9 8 9 8 8 8 9 9 8 7 8 9 9
41 38 41 40 43 42 38 33 30 25 23 21 17 19 17 16 17 18 20 20 19 15 9 10 4 4 10 8 7 9 6 5 10 11 12 12 12 10 8 9 9 9 9 9 9 8 8 7 5 8 9 9 9 9
37 40 40 41 36 32 28 28 23 20 15 15 15 16 16 17 18 19 19 19 18 15 11 6 11 9 7 3 1 6 11 11 13 13 11 10 9 8 9 10 10 10 10 10 9 9 8 9 9 9 9 9 10 9
41 40 39 38 34 28 23 22 21 14 13 15 16 17 16 17 17 18 19 19 19 19 16 14 10 4 3 7 10 10 11 11 11 10 10 8 8 9 9 9 10 10 10 10 10 10 10 9 9 10 10 11 10 10
41 40 36 34 31 24 19 18 17 13 13 14 14 14 14 14 15 15 16 17 18 19 17 15 13 11 11 11 10 11 12 11 11 10 10 11 9 9 11 11 11 10 10 9 8 11 11 9 9 11 11 13 11 9
32 31 31 26 21 19 16 14 14 15 14 12 14 13 12 12 12 13 14 15 15 11 9 8 8 8 8 8 9 11 10 10 10 9 9 11 11 12 11 10 10 11 11 9 8 8 9 9 10 13 12 11 12 9
29 30 26 26 19 15 13 14 14 14 11 11 12 10 11 11 11 11 10 12 10 9 9 9 9 8 9 9 9 9 9 9 10 13 14 14 11 11 11 11 10 9 9 9 9 9 9 10 12 11 10 11 10 8
28 26 23 22 16 13 12 15 12 13 10 10 11 9 8 8 8 10 8 7 8 9 10 10 9 9 8 8 8 9 10 11 11 11 11 11 12 12 11 10 9 8 7 8 10 10 10 11 10 11 8 7 7 7
22 17 15 14 13 9 12 10 12 11 11 10 9 7 7 8 9 10 9 8 8 10 10 9 9 9 9 9 9 9 10 9 9 8 8 9 10 10 10 9 8 8 9 9 9 9 9 8 9 8 7 3 3 2
18 10 13 10 12 11 8 8 9 8 7 8 7 7 7 7 9 7 5 6 8 8 8 9 10 9 8 8 9 9 9 9 9 9 8 8 8 9 9 9 8 8 9 8 8 8 7 7 6 4 7 6 3 1
0 5 1 4 8 8 9 8 8 7 7 7 6 5 6 7 7 5 5 5 6 7 8 9 9 9 8 8 8 8 9 9 9 8 8 8 8 8 7 8 8 8 9 9 8 8 7 6 6 4 2 3 7 3
-5 -0 3 4 7 7 9 10 10 6 2 -0 4 3 2 -4 -2 2 4 2 3 4 5 6 8 8 8 8 9 8 7 7 8 8 8 8 8 8 8 7 7 7 8 8 9 8 8 6 6 4 2 2 3 3
2 2 -3 -0 3 3 5 2 2 2 3 4 2 -4 -7 -3 1 -0 1 2 2 3 3 3 4 6 8 7 8 8 7 6 6 6 7 8 8 8 6 5 5 8 11 10 10 10 8 6 5 3 2 1 2 3
-0 -0 -1 -4 -4 -4 -4 -2 -0 1 1 1 0 0 -1 -2 -1 -1 1 2 1 2 3 4 3 2 4 4 4 5 5 7 7 6 6 6 6 8 7 5 3 3 5 7 13 11 5 4 3 2 2 3 3 2
-1 -3 -3 -4 -3 -3 -6 -5 -3 -1 2 -0 0 -1 -2 -2 -1 1 -0 -1 0 1 -1 -3 -2 -0 4 4 4 5 5 5 6 6 6 6 7 9 8 7 3 2 3 5 8 10 14 9 9 6 5 5 5 4
-2 -3 -2 -2 -0 -2 -3 -5 -4 -1 -4 -3 -5 -3 -3 -3 -1 -0 -2 -2 -3 -4 -1 0 1 -0 2 3 3 4 4 6 5 6 7 8 9 10 9 9 8 6 6 5 5 6 7 7 6 5 5 4 4 4
-2 -3 -1 0 1 -4 -6 -3 -4 -3 -4 -2 -3 -6 -4 -2 -1 -1 -1 -3 -1 -0 3 0 1 1 2 2 3 3 7 5 5 6 8 10 12 14 12 10 9 8 7 7 7 7 6 6 6 5 5 5 4 4
-4 -5 -4 -1 0 0 -3 -4 -3 -1 -3 -3 -3 -7 -7 -3 0 -1 -3 -3 -1 -1 -1 -0 0 1 2 2 2 3 5 5 6 11 12 14 16 18 12 10 10 9 8 8 7 7 6 6 5 5 5 5 5 4
Wind_Speed
15 12 8 3 1 5 8 5 3 3 1 2 4 7 15 23 24 16 5 11 12 7 6 7 5 7 5 7 10 8 7 3 4 8 7 6 7 6 2 3 5 9 9 8 5 6 11 7 5 6 2 1 3 3
18 18 14 9 4 1 4 8 4 2 2 1 2 1 1 5 16 21 8 5 5 4 1 3 4 5 3 1 4 7 1 4 8 5 5 3 4 3 5 6 3 8 8 4 13 8 2 4 1 2 1 2 1 3
19 18 17 13 10 7 5 6 8 3 2 1 2 3 2 2 7 13 6 9 7 5 2 4 2 5 5 6 2 7 3 5 4 2 6 4 5 7 7 10 6 6 5 6 1 3 5 3 2 3 3 2 2 3
20 16 20 17 14 11 7 7 11 5 3 4 2 2 2 11 11 7 5 6 5 4 5 1 2 4 6 5 2 3 6 6 6 3 3 4 4 6 4 2 7 6 9 6 8 5 1 2 1 2 2 2 4 6
17 16 19 19 17 13 10 11 10 6 4 2 1 1 2 10 11 10 7 4 3 2 4 3 3 4 4 2 3 5 8 7 3 5 4 5 2 3 1 1 9 9 8 9 8 2 2 1 4 2 2 3 6 9
16 17 15 18 16 17 15 13 11 8 5 4 5 3 1 11 11 4 3 3 2 3 5 2 1 4 7 7 10 9 6 3 3 4 3 1 1 2 4 6 3 3 2 2 2 3 2 5 5 3 2 5 7 8
17 18 15 18 18 16 13 15 12 10 6 4 4 6 10 11 8 2 3 2 2 1 4 2 1 3 3 3 3 4 4 2 2 2 2 2 2 3 3 11 3 5 6 5 4 6 2 4 2 3 4 5 7 7
19 20 20 16 13 14 16 14 11 9 9 8 8 17 18 20 12 4 8 5 4 7 3 4 1 1 2 1 2 3 2 1 3 1 1 2 2 2 8 4 5 7 7 5 4 5 4 6 3 4 5 6 9 11
20 22 27 24 19 17 14 13 13 10 9 19 23 17 5 6 3 2 4 4 8 3 5 4 7 5 3 2 2 2 1 1 1 1 3 4 4 10 7 6 11 9 5 6 5 5 4 2 2 5 7 9 10 13
20 21 29 28 22 13 10 13 12 13 21 15 5 4 3 2 3 2 1 1 1 3 3 4 3 5 6 2 2 3 2 1 3 3 2 4 7 2 1 1 8 8 6 5 3 2 2 1 3 6 7 8 9 11
21 21 30 30 29 23 20 15 15 24 11 2 3 3 1 4 1 3 2 3 0 2 4 4 3 8 3 5 5 3 3 2 2 2 3 4 6 3 7 8 8 8 7 7 6 5 4 0 4 6 8 8 9 11
22 22 28 33 32 28 23 21 26 8 4 8 12 7 3 2 3 4 3 0 4 5 5 8 5 5 5 3 4 5 4 2 5 4 2 5 4 6 10 8 6 6 6 6 4 3 2 3 3 5 7 9 9 10
23 22 28 33 31 31 25 18 19 25 16 5 5 4 3 1 4 6 9 5 4 8 9 7 7 5 4 3 4 4 5 6 2 3 5 5 5 9 9 8 7 5 5 4 3 3 3 3 4 3 8 8 10 12
24 24 26 32 30 29 29 23 31 13 6 2 6 6 6 5 7 7 5 2 1 3 14 11 7 4 3 4 4 5 2 3 4 5 7 4 10 11 8 6 7 4 2 3 2 3 4 5 6 7 7 8 10 13
24 24 27 32 32 29 29 32 18 5 3 4 4 6 10 2 3 1 1 3 2 10 13 9 6 3 3 4 2 5 3 5 7 5 2 5 11 11 9 6 6 4 3 2 1 3 4 5 6 8 9 10 10 12
23 20 12 24 31 30 29 18 6 3 3 3 2 3 3 5 2 2 2 3 1 11 6 5 4 4 3 5 4 8 5 8 3 3 4 11 11 8 7 4 4 3 2 0 1 2 4 5 7 8 11 10 11 10
16 4 18 26 32 35 25 6 3 5 4 3 2 4 4 5 1 2 2 6 5 6 3 3 6 5 7 2 4 6 6 2 5 6 8 8 10 8 6 5 3 2 1 1 1 2 4 5 4 7 12 13 13 12
3 7 28 41 26 12 4 6 5 4 4 3 4 3 4 3 4 2 1 2 6 4 4 0 6 3 6 5 4 3 1 3 5 7 7 6 6 7 6 6 3 2 1 1 2 3 3 5 7 8 10 11 11 12
22 32 38 29 14 8 5 4 4 5 3 2 5 4 4 4 4 3 3 4 6 5 10 4 2 4 3 2 2 4 8 5 6 4 4 4 5 6 5 3 2 1 1 2 2 4 3 5 5 7 9 9 9 10
35 32 27 22 13 5 5 4 3 7 4 4 3 4 4 4 2 5 7 4 4 4 2 5 5 4 4 1 1 2 6 8 11 9 5 4 4 4 4 3 1 1 1 1 3 2 2 6 4 7 8 7 8 11
17 7 16 11 6 9 6 3 5 3 5 5 2 2 3 2 3 3 3 2 3 2 3 2 3 2 2 2 1 4 7 9 7 6 6 8 6 6 5 3 2 1 1 1 3 5 5 5 7 7 7 8 7 8
6 10 5 6 6 4 6 6 7 5 4 3 3 3 4 2 2 2 2 2 2 2 2 4 5 6 6 5 3 4 5 6 5 5 4 9 6 5 3 3 2 1 0 1 2 4 6 6 7 4 6 7 7 7
11 7 6 5 6 6 3 3 4 3 4 4 2 3 1 1 1 1 2 1 1 0 1 3 5 4 8 5 5 5 4 6 7 6 4 4 4 4 5 3 3 1 1 2 2 4 5 6 6 5 6 6 6 6
9 7 5 4 5 5 2 3 3 4 4 3 3 3 2 1 0 1 2 2 1 3 2 6 8 8 6 5 4 3 3 4 6 4 1 3 4 2 2 3 3 1 1 4 3 4 3 4 5 4 4 5 6 6
7 7 5 6 3 4 4 4 3 3 3 3 4 2 3 1 3 3 2 2 2 3 5 6 3 3 4 4 4 3 2 2 4 5 2 1 2 2 2 1 2 3 1 2 2 3 3 3 2 2 3 3 5 6
7 5 3 2 2 3 4 4 4 5 5 3 2 2 1 2 3 2 1 2 2 2 3 3 3 3 3 2 4 4 3 1 3 2 2 3 3 3 4 3 2 2 3 2 2 3 4 3 2 1 2 4 4 5
5 4 4 4 1 4 5 5 4 4 3 3 5 4 3 2 3 1 1 5 3 3 4 3 2 1 3 5 4 3 2 1 2 3 3 3 2 2 1 1 2 2 1 3 4 5 6 5 4 3 1 1 1 2
4 4 4 3 6 6 4 4 3 3 2 2 2 2 4 2 3 1 2 3 3 3 3 6 6 5 5 5 4 4 3 1 1 1 2 2 2 1 0 1 3 5 3 4 6 6 5 5 3 3 2 1 1 2
5 4 2 7 5 7 6 4 2 2 4 2 2 3 2 2 1 2 2 4 5 2 2 2 5 4 3 3 3 2 1 1 1 1 2 3 4 3 1 4 5 4 3 4 4 4 5 4 4 3 2 1 2 2
4 3 5 4 5 4 2 1 1 3 2 2 2 4 3 2 2 3 3 5 3 3 2 1 3 0 3 3 4 5 5 3 3 2 2 2 3 6 7 5 4 4 3 2 2 2 3 3 3 1 0 1 2 2
2 2 5 5 5 1 0 3 3 2 3 4 5 5 3 2 1 3 5 3 2 1 1 2 5 5 4 4 3 3 3 3 8 5 4 7 10 11 9 7 5 4 3 2 2 3 3 3 3 3 3 4 5 4
5 5 5 5 3 1 4 2 2 3 4 3 4 2 1 2 2 1 3 4 2 4 4 3 2 2 3 2 2 2 3 5 8 8 10 11 13 11 6 7 6 6 5 5 4 4 4 5 5 6 6 7 7 7
3 4 5 6 4 2 1 1 4 2 5 3 5 3 2 1 2 1 1 1 1 1 1 3 5 6 6 6 5 6 6 7 9 10 11 12 12 10 1 4 5 6 7 7 8 8 8 8 8 8 8 8 9 9
Wind_Direction
246 232 231 231 7 337 347 20 58 53 8 210 208 215 217 210 200 189 210 191 198 223 206 203 194 171 168 186 203 153 128 172 159 198 207 219 216 218 214 200 191 199 187 205 167 222 275 156 139 210 162 131 243 230
242 239 211 213 215 165 327 314 319 150 339 289 181 231 196 245 214 186 202 157 128 191 101 20 58 60 87 71 153 178 295 153 172 169 214 167 203 185 200 256 218 248 211 205 198 229 171 165 212 67 91 168 196 293
230 246 209 204 195 202 233 282 295 237 190 301 9 358 29 71 207 168 143 143 116 135 106 164 124 18 39 28 319 171 197 154 170 84 153 186 222 158 205 230 212 235 192 237 232 222 209 194 96 91 72 88 25 346
228 231 235 199 196 201 203 240 273 242 171 225 239 324 141 119 116 126 134 160 116 139 226 134 338 32 331 347 25 53 122 108 106 89 175 193 221 198 225 255 229 220 167 218 249 262 239 217 173 139 100 56 351 332
231 219 236 202 191 194 201 230 226 183 137 117 98 175 106 129 110 101 101 102 91 172 159 128 105 346 324 352 90 100 127 110 138 174 191 218 202 194 177 236 242 191 214 220 256 172 197 197 142 97 36 340 333 331
232 216 224 202 194 193 201 215 168 156 138 135 102 75 327 156 137 96 100 48 40 114 117 161 304 17 23 78 91 96 98 105 129 151 179 226 304 219 239 242 241 166 111 120 183 129 109 133 120 68 8 340 337 331
225 210 195 209 198 187 199 173 163 161 155 113 110 80 107 95 70 96 139 149 78 357 114 116 96 3 4 39 52 55 38 54 96 138 200 175 204 229 247 256 176 148 128 107 95 128 118 176 193 58 7 339 335 324
222 201 176 190 201 197 188 169 162 164 159 134 100 99 97 99 110 72 12 27 78 88 67 143 119 79 349 52 83 9 74 27 40 106 118 187 161 208 248 207 147 149 136 117 89 72 99 117 81 22 353 350 344 339
223 199 180 182 197 203 179 168 170 181 161 131 124 118 88 42 76 65 331 27 64 97 177 167 176 178 138 84 69 52 10 218 16 218 232 170 203 229 233 183 180 180 175 160 127 110 101 100 18 358 353 350 340 331
219 211 185 173 183 192 180 168 163 167 137 124 70 87 100 44 17 9 38 166 64 3 82 177 117 136 145 135 124 119 359 248 255 240 125 224 255 219 121 132 150 140 126 128 145 218 231 343 349 337 338 331 325 319
214 206 186 173 169 191 187 172 164 132 130 114 105 89 104 359 97 56 183 179 165 229 176 150 138 134 215 139 160 202 186 192 255 247 207 251 264 194 141 118 110 109 103 89 102 103 97 136 297 318 327 329 324 317
210 205 191 179 175 179 185 178 154 135 159 144 117 114 104 63 72 170 182 204 204 216 172 153 152 125 146 133 125 171 171 169 245 149 220 254 236 146 150 140 120 112 112 99 86 92 53 1 335 312 314 315 316 312
207 203 191 178 176 176 173 167 150 131 123 83 71 88 129 327 183 201 191 212 220 175 180 164 133 127 118 108 101 151 176 217 119 208 240 244 147 150 148 139 128 114 112 108 86 51 7 341 338 329 314 315 323 324
203 194 190 176 176 171 165 172 149 151 91 123 163 161 197 193 231 203 192 163 133 149 142 123 102 123 119 136 148 169 158 136 208 234 237 206 170 153 142 140 154 155 105 81 58 19 353 333 325 325 324 323 329 336
199 189 184 177 177 170 166 160 144 64 115 174 169 186 200 159 87 146 187 152 66 134 129 109 87 115 114 128 131 117 149 234 223 235 232 168 148 147 149 147 147 141 115 88 18 357 329 327 319 321 334 334 340 334
194 179 183 185 167 140 140 115 78 75 60 106 105 125 110 139 184 166 172 136 122 142 108 90 130 149 159 146 166 207 184 226 227 205 158 145 147 144 149 144 134 141 159 174 314 301 315 320 322 321 327 344 345 337
138 146 171 172 145 135 123 96 91 67 104 115 101 41 97 77 73 166 158 158 135 147 184 123 189 189 124 168 228 195 221 221 162 149 148 156 156 152 144 140 159 177 179 257 304 306 299 298 322 351 348 343 339 334
113 154 134 120 114 87 55 47 81 84 87 68 134 103 93 88 104 81 8 156 150 157 128 168 131 185 194 201 217 206 149 98 100 128 131 125 123 126 139 144 152 202 218 301 279 291 302 353 351 339 334 332 333 342
134 131 131 130 113 94 80 51 38 98 83 92 95 79 86 92 64 53 81 81 77 92 114 108 257 243 224 218 205 158 156 145 153 135 117 117 142 144 147 157 173 208 239 263 317 335 331 330 309 320 322 328 335 340
133 123 109 89 76 88 91 62 56 90 124 148 102 105 96 101 96 81 74 55 87 116 153 191 208 192 159 197 229 152 151 147 139 135 144 156 174 172 161 153 146 212 208 349 345 350 329 351 348 339 330 345 348 339
85 47 52 66 60 60 81 84 68 86 108 93 104 84 81 47 77 84 96 34 89 146 182 196 168 133 84 93 89 118 132 150 161 168 182 178 189 187 161 104 112 173 200 348 351 348 356 337 320 325 335 336 335 335
84 63 78 58 82 73 79 29 115 123 86 110 78 59 83 81 98 68 343 92 164 173 178 161 155 147 133 114 92 90 117 122 117 115 121 134 159 173 179 165 174 172 193 279 312 323 325 324 324 359 350 345 353 349
89 57 56 61 79 55 90 359 83 39 119 136 92 92 80 155 203 310 106 149 184 109 111 122 133 111 123 115 99 87 90 127 124 109 111 128 144 151 142 147 135 119 321 277 299 313 323 334 344 3 1 9 13 17
45 58 62 75 82 109 110 70 81 96 106 117 123 139 173 150 56 120 203 177 113 130 122 131 131 114 100 113 118 114 87 112 120 110 105 176 172 170 168 168 157 157 263 301 313 318 326 343 358 12 24 29 29 24
78 12 42 65 71 111 107 117 105 95 115 136 131 155 177 176 172 193 223 145 135 124 124 134 109 99 140 127 132 125 67 150 189 205 208 126 137 166 184 181 217 237 301 347 317 321 327 334 352 10 22 22 25 21
81 9 55 94 99 102 147 122 143 139 126 129 129 115 112 139 176 213 107 42 61 77 117 155 156 136 111 118 157 172 198 215 176 172 195 197 197 202 210 216 281 306 193 223 288 313 314 294 291 325 11 19 25 26
88 66 46 28 41 104 94 79 81 99 106 144 169 153 148 179 218 144 80 20 29 20 8 12 26 81 148 133 109 110 127 142 158 140 141 161 156 163 158 209 274 286 237 284 263 262 278 277 258 248 244 317 344 5
88 39 107 29 65 23 104 80 66 71 86 8 127 128 166 164 169 39 6 350 344 334 36 41 38 54 99 113 121 132 111 109 121 187 218 217 202 180 181 283 278 288 289 279 262 261 246 249 241 223 224 260 303 307
63 15 79 70 57 48 43 55 80 49 358 351 113 117 120 69 11 335 342 342 342 33 71 58 38 28 77 74 66 61 69 81 173 8 12 357 8 30 346 317 309 307 306 305 294 202 194 182 181 177 170 214 280 296
39 11 94 75 62 50 357 325 74 339 24 74 94 110 92 73 12 354 4 23 58 79 66 20 345 38 162 158 117 68 45 50 51 75 67 14 321 305 309 294 295 292 297 282 285 323 107 104 129 111 240 297 312 308
20 80 82 63 85 78 266 321 316 14 38 53 32 81 98 134 33 24 30 16 32 68 120 95 63 47 82 88 95 104 78 22 11 352 309 294 292 289 279 255 234 219 236 254 240 229 238 227 238 238 252 270 285 301
36 50 105 100 117 7 17 32 28 57 26 61 35 50 98 122 86 340 354 9 84 73 66 88 104 55 9 354 332 317 325 329 331 324 316 311 308 296 252 218 203 202 218 234 238 232 229 234 239 247 260 272 281 288
74 62 73 100 109 147 45 104 42 76 48 54 35 24 33 57 104 256 288 223 179 154 349 333 319 317 316 311 310 314 324 323 315 318 320 313 325 10 94 187 200 214 227 239 242 239 241 242 250 257 264 273 284 288